Overview Statistics Trail Chart Weather Telemetry Raw packets
 

This is the latest recevied weather packets stored in our database for station/object KC5DAQ-26. If no packets are shown the sender has not sent any weather packets the latest 10 day(s).

<< 538 539 540 541 542 543 544 >>
Time Temp. Humidity Pressure Rain* Wind** Luminosity Snow
1787781963 37.22° C 50% 1016 hPa 0 mm - 478 W/m² -
1787781903 37.22° C 50% 1016 hPa 0 mm - 484 W/m² -
1787781843 37.22° C 50% 1016 hPa 0 mm - 489 W/m² -
1787781783 37.78° C 48% 1016 hPa 0 mm - 487 W/m² -
1787781723 37.78° C 48% 1016 hPa 0 mm - 492 W/m² -
1787781663 37.78° C 50% 1016 hPa 0 mm - 496 W/m² -
1787781603 37.78° C 50% 1016.1 hPa 0 mm - 496 W/m² -
1787781544 37.22° C 49% 1016 hPa 0 mm - 499 W/m² -
1787781483 37.22° C 50% 1016 hPa 0 mm - 506 W/m² -
1787781423 37.22° C 51% 1016 hPa 0 mm - 508 W/m² -
1787781363 37.22° C 49% 1016 hPa 0 mm - 512 W/m² -
1787781304 37.22° C 50% 1016 hPa 0 mm - 515 W/m² -
1787781243 37.22° C 52% 1016.1 hPa 0 mm - 519 W/m² -
1787781182 37.22° C 52% 1016 hPa 0 mm - 519 W/m² -
1787781125 37.22° C 51% 1016.1 hPa 0 mm - 529 W/m² -
1787781065 37.22° C 49% 1016 hPa 0 mm - 533 W/m² -
1787781002 37.22° C 50% 1016.1 hPa 0 mm - 535 W/m² -
1787780943 37.78° C 51% 1016.2 hPa 0 mm - 538 W/m² -
1787780883 37.78° C 52% 1016.1 hPa 0 mm - 540 W/m² -
1787780822 37.22° C 49% 1016.1 hPa 0 mm - 540 W/m² -
1787780765 37.22° C 49% 1016.1 hPa 0 mm - 543 W/m² -
1787780705 37.22° C 50% 1016.2 hPa 0 mm - 549 W/m² -
1787780642 37.22° C 49% 1016.1 hPa 0 mm - 550 W/m² -
1787780585 37.22° C 50% 1016.1 hPa 0 mm - 556 W/m² -
1787780522 37.22° C 50% 1016.2 hPa 0 mm - 556 W/m² -

* Rain latest hour (hover to see other rain measurements)
** Current wind speed in m/s (hover to see current wind gust speed)